Terminal Aerodrome Forecast
Issued by NWS

Home | Current Version | Previous Version | Text Only | Print | Product List | Glossary On
Versions: 1 2 3 4 5 6 7 8 9 10 11 12 13 14 15 16 17 18 19 20 21 22
000
FTUS46 KSEW 200634 AAA
TAFBFI
TAF AMD
KBFI 200634Z 2007/2106 14005KT 3SM -RA BR SCT022 BKN030 OVC035
      TEMPO 2007/2011 BKN020 OVC030
     FM201300 14005KT P6SM -SHRA BKN015 OVC028
     FM202000 VRB04KT P6SM -SHRA SCT018 BKN030 BKN060
     FM210100 VRB04KT P6SM SCT035 BKN050=

USA.gov is the U.S. government's official web portal to all federal, state and local government web resources and services.